Flag for Ukraine Weather past 2 weeks in L'viv, Ukraine

Now
72 °F

Sunny.


Feels Like: 75 °F
Forecast: 63 / 84 °F
Wind: 3 mph from Southeast

Location: L'Viv Airport

Current Time: Jul 30, 2014 at 10:05:20 AM

Latest Report: Jul 30, 2014 at 9:30 AM


Visibility: 10 mi

Pressure: 29.89 "Hg

Humidity: 65%

Dew point: 59 °F

Location of L'vivLocation

Historic Weather in L'viv — Graph

°F

L'viv temperature yesterday

Maximum temperature yesterday: 84 °F (at 1:30 PM)
Minimum temperature yesterday: 66 °F (at 6:00 AM)
Average temperature yesterday: 75 °F

Past Weeks' High & Low Weather Summary

 TemperatureHumidityPressure
High86 °F (Jul 28, 1:30 PM)100% (Jul 20, 3:00 AM)30.12 "Hg (Jul 20, 3:00 AM)
Low55 °F (Jul 20, 5:00 AM)29% (Jul 28, 3:30 PM)29.83 "Hg (Jul 21, 5:30 PM)
Average71 °F66%29.99 "Hg
* Reported Jul 15 8:00 AM — Jul 30 8:30 AM, L'viv, Weather by CustomWeather, © 2014

Note: Actual official high and low records may vary slightly from our data, if they occured in-between our weather recording intervals... More about our weather records

Advertising

L'viv weather history for previous 24 hours

 ConditionsComfort  
Time TempWeatherWind HumidityBarometerVisibility
8:30 AM
Jul 30
70 °FSunny.6 mph69%29.89 "Hg10 mi
8:00 AM66 °FSunny.6 mph73%29.89 "Hg10 mi
7:30 AM64 °FSunny.6 mph78%29.89 "Hg10 mi
7:00 AM61 °FClear.3 mph88%29.89 "Hg4 mi
6:30 AM59 °FClear.3 mph88%29.89 "Hg10 mi
6:00 AM61 °FClear.3 mph83%29.89 "Hg10 mi
5:30 AM61 °FClear.3 mph88%29.89 "Hg10 mi
5:00 AM61 °FClear.3 mph83%29.89 "Hg10 mi
4:30 AM63 °FClear.6 mph77%29.89 "Hg10 mi
4:00 AM63 °FClear.3 mph83%29.89 "Hg10 mi
3:30 AM63 °FClear.1 mph77%29.89 "Hg10 mi
3:00 AM64 °FClear.6 mph73%29.89 "Hg10 mi
2:30 AM66 °FClear.6 mph68%29.89 "Hg10 mi
2:00 AM63 °FClear.6 mph77%29.89 "Hg10 mi
1:30 AM64 °FClear.6 mph73%29.89 "Hg10 mi
1:00 AM63 °FClear.6 mph77%29.89 "Hg10 mi
12:30 AM64 °FClear.6 mph73%29.89 "Hg10 mi
12:00 AM66 °FClear.6 mph68%29.89 "Hg10 mi
11:30 PM
Jul 29
68 °FClear.6 mph64%29.89 "Hg10 mi
11:00 PM70 °FClear.6 mph60%29.89 "Hg10 mi
10:30 PM70 °FClear.6 mph60%29.89 "Hg10 mi
10:00 PM70 °FSunny.8 mph60%29.89 "Hg10 mi
9:30 PM73 °FSunny.8 mph53%29.89 "Hg10 mi
9:00 PM73 °FSunny.8 mph57%29.89 "Hg10 mi
8:30 PM75 °FBroken clouds.8 mph54%29.89 "HgN/A
8:00 PM75 °FBroken clouds.3 mph57%29.89 "HgN/A
7:30 PM75 °FBroken clouds.1 mph61%29.89 "HgN/A
7:00 PM75 °FSprinkles. Broken clouds.6 mph57%29.89 "HgN/A
6:30 PM77 °FBroken clouds.1 mph51%29.89 "HgN/A
6:00 PM79 °FBroken clouds.6 mph48%29.89 "HgN/A
5:30 PM79 °FBroken clouds.10 mph48%29.89 "HgN/A
5:00 PM79 °FBroken clouds.10 mph45%29.89 "HgN/A
4:30 PM82 °FBroken clouds.17 mph37%29.89 "HgN/A
4:00 PM84 °FBroken clouds.15 mph35%29.89 "HgN/A
3:30 PM84 °FSunny.20 mph31%29.89 "Hg10 mi
3:00 PM84 °FSunny.20 mph29%29.89 "Hg10 mi
2:30 PM84 °FSunny.20 mph31%29.89 "Hg10 mi
2:00 PM84 °FSunny.17 mph29%29.89 "Hg10 mi
1:30 PM84 °FPassing clouds.17 mph31%29.89 "HgN/A
1:00 PM82 °FSunny.20 mph30%29.92 "Hg10 mi
12:30 PM82 °FSunny.20 mph30%29.92 "Hg10 mi
12:00 PM82 °FSunny.15 mph35%29.92 "Hg10 mi
11:30 AM81 °FSunny.15 mph34%29.92 "Hg10 mi
11:00 AM81 °FSunny.15 mph39%29.92 "Hg10 mi
10:30 AM81 °FSunny.13 mph42%29.92 "Hg10 mi
10:00 AM79 °FSunny.10 mph48%29.92 "Hg10 mi
Weather by CustomWeather, © 2014

See weather overviewHow to use our weather pages